Powrót do katalogu

BREEZE-M DEB

TANK

AktywnyHEO
NORAD 40986·DEBRIS·🇷🇺 Russia

Wystrzelony Oct 16, 2015 z Baikonur Cosmodrome

Loading…

Następne Przeloty (najbliższe 24 godziny)

TLE

ŚwieżeSource: Space-Track

Epoka: Sep 14, 2026, 15:48 UTC

1 40986U 15060C   26257.65839370  .00000540  00000-0  27411-3 0  9999
2 40986  49.0465 134.7910 6078532 297.3182  14.3197  3.85676044152416

Śledź BREEZE-M DEB w czasie rzeczywistym z AllMySat

Download on the App Store